Skip Page Navigation
NASA JPL Caltech
NASA Logo - Jet Propulsion Laboratory + View the NASA Portal
+ Center for Near-Earth Object Studies
JPL Home Earth Solar System Stars & Galaxies Technology
JPL Solar System Dynamics
BODIES ORBITS EPHEMERIDES TOOLS PHYSICAL DATA DISCOVERY FAQ SITE MAP
IMPORTANT: The SSD Announcement email list is now available. Major changes are coming in the near future, including possible hostname and/or URL changes. To be notified of such changes, subscribe to this email list.

Please visit this page for more details.


JPL Small-Body Database Browser
Search: [ help ]  
39577 (1993 FV12)
Classification: Main-belt Asteroid          SPK-ID: 2039577
Ephemeris | Orbit Diagram | Orbital Elements | Mission Design | Physical Parameters | Discovery Circumstances | Close-Approach Data ]

[ show orbit diagram ]
Orbital Elements at Epoch 2458600.5 (2019-Apr-27.0) TDB
Reference: JPL 10 (heliocentric ecliptic J2000)
 Element Value Uncertainty (1-sigma)   Units 
e .2481263197297943 4.6127e-08  
a 2.679736415764213 1.6288e-08 au
q 2.014823281074729 1.2758e-07 au
i 12.81680185691066 6.7011e-06 deg
node 167.7811252222943 2.2662e-05 deg
peri 96.41181575807785 2.7492e-05 deg
M 289.6654823403726 1.6375e-05 deg
tp 2458913.541961876531
(2020-Mar-05.04196188)
7.4431e-05 TDB
period 1602.273108929547
4.39
1.4609e-05
4e-08
d
yr
n .224680797545501 2.0485e-09 deg/d
Q 3.344649550453697 2.033e-08 au
  Orbit Determination Parameters
   # obs. used (total)      445  
   data-arc span      17567 days (48.10 yr)  
   first obs. used      1971-03-25  
   last obs. used      2019-04-29  
   planetary ephem.      DE431  
   SB-pert. ephem.      SB431-N16  
   condition code      0  
   norm. resid. RMS      .63109  
   source      ORB  
   producer      Otto Matic  
   solution date      2019-Jul-13 02:07:26  

Additional Information
 Earth MOID = 1.04749 au 
 Jupiter MOID = 1.94388 au 
 T_jup = 3.297 
[ show covariance matrix ]

Ephemeris | Orbit Diagram | Orbital Elements | Mission Design | Physical Parameters | Discovery Circumstances | Close-Approach Data ]

Physical Parameter Table
Parameter Symbol Value Units Sigma Reference Notes
absolute magnitude H 15.5   n/a MPO431946  

39577 (1993 FV12)          Discovered 1993-Mar-17 by UESAC at La Silla
Reference: 20020526/Numbers.arcLast Updated: 2004-04-19

[ show close-approach data ]
Alternate Designations
 1993 FV12 = 2108 T-1 
Ephemeris | Orbit Diagram | Orbital Elements | Mission Design | Physical Parameters | Discovery Circumstances | Close-Approach Data ]
ABOUT SSD CREDITS/AWARDS PRIVACY/COPYRIGHT GLOSSARY LINKS
FirstGov 2020-Jan-19 00:00 UT
(server date/time)  
NASA Home Page
Site Manager:   Ryan S. Park
Webmaster  Alan B. Chamberlin